Location: Grand Lay
(47.3253°N, 0.9468°E)
Time: 04:08:44
(UTC+00:00)

BREEZE-M DEB (TANK) - Visible Passes

Search period start: 21 April 2026 00:00
Search period end: 01 May 2026 00:00
Orbit: 288 x 14629 km, 49.6° (Epoch: 19 April)

Date Brightness Start Highest point End Pass type
(mag) Time Alt. Az. Time Alt. Az. Time Alt. Az.
22 Apr 7.4 21:10:36 10° NW 21:40:43 18° WNW 21:54:05 10° WSW visible
23 Apr 6.9 19:05:09 10° NW 20:12:38 38° W 20:28:28 10° SSW visible
25 Apr 7.6 21:13:55 10° NW 21:37:34 15° WNW 21:50:02 10° W visible
26 Apr 7.1 19:06:39 10° NW 20:10:14 34° W 20:26:41 10° SSW visible
28 Apr 7.9 21:18:43 10° NW 21:33:49 12° WNW 21:43:46 10° W visible
29 Apr 10.6 04:40:54 10° ENE 05:00:01 11° ENE 05:18:22 10° NE visible
29 Apr 7.2 19:07:45 10° NW 20:07:16 30° W 20:24:23 10° SW visible
